Tracking 23764 objects as of 18-Oct-2021
HD Live streaming from Space Station
objects crossing your sky now

FLOCK 3K 3

Track FLOCK 3K 3 now!
10-day predictions
FLOCK 3K 3 is classified as:


NORAD ID: 43892
Int'l Code: 2018-111S
Perigee: 469.4 km
Apogee: 495.3 km
Inclination: 97.2 °
Period: 94.1 minutes
Semi major axis: 6853 km
RCS: Unknown
Launch date: December 27, 2018
Source: United States (US)
Launch site: VOSTOCHNY COSMODROME (VOSTO)
aabbcc
Your satellite tracking list
Your tracking list is empty




NASA's NSSDC Master Catalog

Two Line Element Set (TLE):
1 43892U 18111S   21290.62420347  .00008078  00000-0  27755-3 0  9992
2 43892  97.2168 182.6588 0018932 212.9248 147.0816 15.30194911156395
Source of the keplerian elements: AFSPC